UKV1254 EGPH-EGNX

Flight info

Callsign UKV1254
Flight time 1h 3m
Altitude 27000
Route GOSAM P600 FENIK L612 BEBNI/N0401F250 L612 VAMEB/N0389F230 L612 CROFT
Aircraft B738/M-SDE2E3FGHIRWXY/LB1

Departure

Time 2026-04-25 08:50
Airport Edinburgh Airport (EGPH)

Arrival

Time 2026-04-25 09:54
Airport East Midlands Airport (EGNX)
Time Latitude Longitude Altitude Speed Heading
2026-04-25 08:25 55.94797 -3.35683 116 ft 0 kts 208°
2026-04-25 08:36 55.94803 -3.35677 111 ft 3 kts 208°
2026-04-25 08:36 55.94820 -3.35661 112 ft 3 kts 208°
2026-04-25 08:37 55.94836 -3.35645 112 ft 3 kts 213°
2026-04-25 08:37 55.94847 -3.35620 116 ft 3 kts 277°
2026-04-25 08:37 55.94846 -3.35605 111 ft 0 kts 307°
2026-04-25 08:41 55.94846 -3.35606 111 ft 1 kts 307°
2026-04-25 08:41 55.94861 -3.35641 114 ft 6 kts 306°
2026-04-25 08:42 55.94891 -3.35727 113 ft 10 kts 299°
2026-04-25 08:42 55.94921 -3.35818 114 ft 7 kts 307°
2026-04-25 08:42 55.94965 -3.35859 114 ft 8 kts 356°
2026-04-25 08:42 55.95018 -3.35836 115 ft 8 kts
2026-04-25 08:43 55.95062 -3.35893 114 ft 9 kts 303°
2026-04-25 08:43 55.95092 -3.35999 112 ft 10 kts 291°
2026-04-25 08:43 55.95117 -3.36125 112 ft 11 kts 289°
2026-04-25 08:43 55.95135 -3.36229 114 ft 7 kts 280°
2026-04-25 08:44 55.95122 -3.36319 112 ft 8 kts 242°
2026-04-25 08:44 55.95089 -3.36412 113 ft 9 kts 239°
2026-04-25 08:44 55.95054 -3.36519 113 ft 11 kts 240°
2026-04-25 08:44 55.95013 -3.36638 111 ft 12 kts 238°
2026-04-25 08:45 55.94969 -3.36770 113 ft 13 kts 238°
2026-04-25 08:45 55.94920 -3.36915 113 ft 14 kts 239°
2026-04-25 08:45 55.94868 -3.37072 115 ft 15 kts 240°
2026-04-25 08:45 55.94811 -3.37237 113 ft 16 kts 238°
2026-04-25 08:46 55.94753 -3.37408 115 ft 16 kts 239°
2026-04-25 08:46 55.94694 -3.37580 114 ft 16 kts 239°
2026-04-25 08:46 55.94637 -3.37751 114 ft 16 kts 239°
2026-04-25 08:46 55.94579 -3.37921 115 ft 16 kts 239°
2026-04-25 08:47 55.94521 -3.38089 113 ft 16 kts 239°
2026-04-25 08:47 55.94464 -3.38259 114 ft 16 kts 239°
2026-04-25 08:47 55.94407 -3.38427 114 ft 16 kts 239°
2026-04-25 08:47 55.94350 -3.38594 115 ft 16 kts 238°
2026-04-25 08:48 55.94302 -3.38737 113 ft 11 kts 239°
2026-04-25 08:48 55.94284 -3.38836 115 ft 8 kts 277°
2026-04-25 08:48 55.94319 -3.38901 113 ft 8 kts 327°
2026-04-25 08:48 55.94369 -3.38954 113 ft 9 kts 330°
2026-04-25 08:49 55.94409 -3.38980 112 ft 5 kts 11°
2026-04-25 08:49 55.94425 -3.38947 112 ft 0 kts 59°
2026-04-25 08:49 55.94432 -3.38926 113 ft 11 kts 59°
2026-04-25 08:49 55.94548 -3.38585 111 ft 59 kts 59°
2026-04-25 08:50 55.94865 -3.37663 112 ft 114 kts 57°
2026-04-25 08:50 55.95338 -3.36187 200 ft 154 kts 63°
2026-04-25 08:50 55.95903 -3.34467 695 ft 161 kts 61°
2026-04-25 08:50 55.96529 -3.32803 1441 ft 173 kts 50°
2026-04-25 08:51 55.97489 -3.31225 2052 ft 196 kts 44°
2026-04-25 08:51 55.98602 -3.29731 2969 ft 203 kts 22°
2026-04-25 08:51 56.00003 -3.29574 3691 ft 215 kts 341°
2026-04-25 08:51 56.01231 -3.31009 4646 ft 211 kts 308°
2026-04-25 08:52 56.01815 -3.33379 5470 ft 217 kts 275°
2026-04-25 08:52 56.01736 -3.36149 5946 ft 232 kts 265°
2026-04-25 08:52 56.01591 -3.39103 6029 ft 239 kts 265°
2026-04-25 08:52 56.01445 -3.42055 6022 ft 239 kts 267°
2026-04-25 08:53 56.01341 -3.45066 6602 ft 241 kts 264°
2026-04-25 08:53 56.01044 -3.48084 7364 ft 256 kts 259°
2026-04-25 08:53 56.00668 -3.51285 8043 ft 269 kts 258°
2026-04-25 08:53 56.00234 -3.54567 8936 ft 274 kts 257°
2026-04-25 08:54 55.99755 -3.57906 9807 ft 280 kts 256°
2026-04-25 08:54 55.99256 -3.61296 10616 ft 288 kts 256°
2026-04-25 08:54 55.98735 -3.64869 11098 ft 306 kts 257°
2026-04-25 08:54 55.98188 -3.68662 11590 ft 323 kts 257°
2026-04-25 08:55 55.97616 -3.72638 12166 ft 337 kts 257°
2026-04-25 08:55 55.97026 -3.76726 12973 ft 343 kts 256°
2026-04-25 08:55 55.96423 -3.80885 13854 ft 348 kts 257°
2026-04-25 08:55 55.95809 -3.85103 14675 ft 353 kts 257°
2026-04-25 08:56 55.95190 -3.89354 15535 ft 356 kts 257°
2026-04-25 08:56 55.94564 -3.93655 16386 ft 360 kts 256°
2026-04-25 08:56 55.93844 -3.97966 17214 ft 365 kts 248°
2026-04-25 08:56 55.92610 -4.01959 18070 ft 371 kts 234°
2026-04-25 08:57 55.90829 -4.05314 18888 ft 375 kts 218°
2026-04-25 08:57 55.88702 -4.08066 19559 ft 381 kts 214°
2026-04-25 08:57 55.86500 -4.10743 20292 ft 384 kts 214°
2026-04-25 08:57 55.84268 -4.13399 21012 ft 388 kts 214°
2026-04-25 08:58 55.82049 -4.16060 21686 ft 392 kts 214°
2026-04-25 08:58 55.79761 -4.18852 22364 ft 396 kts 214°
2026-04-25 08:58 55.77518 -4.21619 23056 ft 399 kts 215°
2026-04-25 08:58 55.75120 -4.24143 23720 ft 403 kts 203°
2026-04-25 08:59 55.72423 -4.25606 24276 ft 408 kts 189°
2026-04-25 08:59 55.69583 -4.25735 24844 ft 411 kts 173°
2026-04-25 08:59 55.66837 -4.24442 25638 ft 408 kts 158°
2026-04-25 08:59 55.64266 -4.22325 26308 ft 407 kts 153°
2026-04-25 09:00 55.61791 -4.19873 26938 ft 407 kts 149°
2026-04-25 09:00 55.59353 -4.17250 27214 ft 414 kts 149°
2026-04-25 09:00 55.56865 -4.14641 27219 ft 413 kts 150°
2026-04-25 09:00 55.54377 -4.12199 27222 ft 405 kts 152°
2026-04-25 09:01 55.51885 -4.09853 27224 ft 407 kts 153°
2026-04-25 09:01 55.49388 -4.07496 27221 ft 406 kts 152°
2026-04-25 09:01 55.46917 -4.05107 27229 ft 405 kts 151°
2026-04-25 09:01 55.44446 -4.02681 27219 ft 406 kts 151°
2026-04-25 09:02 55.42000 -4.00280 27219 ft 400 kts 151°
2026-04-25 09:02 55.39556 -3.97906 27235 ft 403 kts 151°
2026-04-25 09:02 55.37095 -3.95536 27223 ft 403 kts 152°
2026-04-25 09:02 55.34639 -3.93176 27234 ft 401 kts 152°
2026-04-25 09:03 55.32186 -3.90815 27219 ft 403 kts 151°
2026-04-25 09:03 55.29726 -3.88445 27228 ft 402 kts 151°
2026-04-25 09:03 55.27269 -3.86080 27216 ft 402 kts 151°
2026-04-25 09:03 55.24804 -3.83715 27221 ft 407 kts 152°
2026-04-25 09:04 55.22290 -3.81307 27221 ft 414 kts 152°
2026-04-25 09:04 55.19773 -3.78895 27217 ft 409 kts 152°
2026-04-25 09:04 55.17327 -3.76555 27221 ft 403 kts 152°
2026-04-25 09:04 55.14823 -3.74166 27227 ft 406 kts 152°
2026-04-25 09:05 55.12341 -3.71804 27219 ft 405 kts 152°
2026-04-25 09:05 55.09903 -3.69484 27230 ft 404 kts 152°
2026-04-25 09:05 55.07429 -3.67134 27231 ft 405 kts 152°
2026-04-25 09:05 55.04950 -3.64781 27229 ft 404 kts 152°
2026-04-25 09:06 55.02477 -3.62439 27229 ft 405 kts 152°
2026-04-25 09:06 55.00006 -3.60102 27223 ft 405 kts 152°
2026-04-25 09:06 54.97527 -3.57759 27224 ft 404 kts 152°
2026-04-25 09:06 54.95058 -3.55427 27230 ft 404 kts 152°
2026-04-25 09:07 54.92595 -3.53105 27226 ft 401 kts 152°
2026-04-25 09:07 54.90140 -3.50796 27220 ft 401 kts 152°
2026-04-25 09:07 54.87677 -3.48483 27219 ft 402 kts 152°
2026-04-25 09:07 54.85213 -3.46172 27216 ft 401 kts 152°
2026-04-25 09:08 54.82750 -3.43864 27216 ft 402 kts 152°
2026-04-25 09:08 54.80294 -3.41565 27218 ft 402 kts 152°
2026-04-25 09:08 54.77860 -3.39292 27218 ft 402 kts 152°
2026-04-25 09:08 54.75395 -3.36994 27218 ft 402 kts 152°
2026-04-25 09:09 54.72938 -3.34705 27225 ft 402 kts 152°
2026-04-25 09:09 54.70428 -3.32570 27192 ft 401 kts 156°
2026-04-25 09:09 54.67874 -3.30664 27201 ft 399 kts 158°
2026-04-25 09:09 54.65317 -3.28819 27252 ft 398 kts 158°
2026-04-25 09:10 54.62720 -3.26921 26911 ft 407 kts 157°
2026-04-25 09:10 54.60182 -3.25018 27079 ft 396 kts 157°
2026-04-25 09:10 54.57654 -3.23100 27197 ft 400 kts 157°
2026-04-25 09:10 54.55091 -3.21165 27205 ft 404 kts 157°
2026-04-25 09:11 54.49904 -3.17302 27212 ft 404 kts 157°
2026-04-25 09:11 54.47324 -3.15388 27216 ft 404 kts 157°
2026-04-25 09:11 54.44738 -3.13467 27216 ft 404 kts 158°
2026-04-25 09:12 54.43030 -3.12201 27215 ft 402 kts 158°
2026-04-25 09:12 54.40475 -3.10304 27216 ft 401 kts 158°
2026-04-25 09:12 54.37905 -3.08399 27224 ft 403 kts 158°
2026-04-25 09:12 54.35330 -3.06494 27224 ft 401 kts 158°
2026-04-25 09:13 54.32771 -3.04604 27226 ft 402 kts 158°
2026-04-25 09:13 54.30202 -3.02712 27231 ft 402 kts 158°
2026-04-25 09:13 54.27630 -3.00820 27232 ft 401 kts 158°
2026-04-25 09:13 54.25058 -2.98929 27228 ft 402 kts 158°
2026-04-25 09:14 54.22491 -2.97042 27231 ft 402 kts 158°
2026-04-25 09:14 54.19919 -2.95154 27234 ft 401 kts 158°
2026-04-25 09:14 54.17361 -2.93280 27237 ft 398 kts 158°
2026-04-25 09:14 54.14813 -2.91417 27235 ft 400 kts 158°
2026-04-25 09:15 54.12255 -2.89550 27230 ft 400 kts 158°
2026-04-25 09:15 54.09702 -2.87688 27232 ft 399 kts 158°
2026-04-25 09:15 54.07148 -2.85827 27232 ft 400 kts 158°
2026-04-25 09:15 54.04586 -2.83965 27234 ft 399 kts 158°
2026-04-25 09:16 54.02031 -2.82109 27237 ft 399 kts 158°
2026-04-25 09:16 53.99475 -2.80254 27234 ft 399 kts 158°
2026-04-25 09:16 53.96915 -2.78398 27236 ft 399 kts 158°
2026-04-25 09:16 53.94361 -2.76548 27236 ft 398 kts 158°
2026-04-25 09:17 53.89294 -2.72885 27243 ft 399 kts 158°
2026-04-25 09:17 53.86737 -2.71041 27243 ft 398 kts 158°
2026-04-25 09:17 53.84186 -2.69206 27245 ft 398 kts 158°
2026-04-25 09:18 53.81634 -2.67373 27239 ft 398 kts 158°
2026-04-25 09:18 53.79085 -2.65544 27242 ft 398 kts 158°
2026-04-25 09:18 53.76524 -2.63708 27249 ft 398 kts 158°
2026-04-25 09:18 53.73973 -2.61880 27246 ft 398 kts 158°
2026-04-25 09:19 53.71422 -2.60055 27237 ft 398 kts 159°
2026-04-25 09:19 53.68846 -2.58217 27234 ft 403 kts 158°
2026-04-25 09:19 53.66247 -2.56365 27246 ft 405 kts 158°
2026-04-25 09:19 53.63663 -2.54521 27226 ft 402 kts 158°
2026-04-25 09:20 53.61187 -2.52291 26614 ft 406 kts 150°
2026-04-25 09:20 53.58789 -2.49848 26008 ft 409 kts 150°
2026-04-25 09:20 53.56363 -2.47330 25420 ft 410 kts 149°
2026-04-25 09:20 53.53931 -2.44795 24829 ft 411 kts 149°
2026-04-25 09:21 53.51490 -2.42270 24240 ft 412 kts 149°
2026-04-25 09:21 53.49031 -2.39751 23617 ft 414 kts 149°
2026-04-25 09:21 53.46569 -2.37241 22969 ft 414 kts 149°
2026-04-25 09:21 53.44110 -2.34731 22346 ft 413 kts 149°
2026-04-25 09:22 53.41655 -2.32222 21710 ft 412 kts 149°
2026-04-25 09:22 53.39208 -2.29722 21106 ft 411 kts 149°
2026-04-25 09:22 53.36791 -2.27256 20486 ft 411 kts 149°
2026-04-25 09:22 53.34342 -2.24796 19957 ft 407 kts 150°
2026-04-25 09:23 53.31920 -2.22521 19552 ft 392 kts 152°
2026-04-25 09:23 53.29553 -2.20407 19154 ft 380 kts 152°
2026-04-25 09:23 53.27256 -2.18362 18767 ft 370 kts 152°
2026-04-25 09:23 53.25006 -2.16312 18378 ft 368 kts 151°
2026-04-25 09:24 53.22769 -2.14234 17961 ft 367 kts 151°
2026-04-25 09:24 53.20545 -2.12161 17582 ft 364 kts 151°
2026-04-25 09:24 53.18332 -2.10115 17200 ft 363 kts 152°
2026-04-25 09:24 53.16127 -2.08093 16828 ft 361 kts 152°
2026-04-25 09:25 53.13927 -2.06082 16450 ft 359 kts 152°
2026-04-25 09:25 53.11740 -2.04085 16060 ft 358 kts 152°
2026-04-25 09:25 53.09563 -2.02093 15706 ft 356 kts 151°
2026-04-25 09:25 53.07405 -2.00071 15342 ft 355 kts 146°
2026-04-25 09:26 53.05655 -1.97295 15226 ft 343 kts 126°
2026-04-25 09:26 53.04657 -1.93779 14973 ft 335 kts 103°
2026-04-25 09:26 53.04511 -1.89942 14634 ft 334 kts 88°
2026-04-25 09:26 53.04633 -1.86084 14243 ft 333 kts 85°
2026-04-25 09:27 53.04828 -1.82282 13864 ft 327 kts 84°
2026-04-25 09:27 53.05014 -1.78547 13487 ft 321 kts 85°
2026-04-25 09:27 53.05160 -1.74867 13154 ft 319 kts 86°
2026-04-25 09:27 53.05284 -1.71170 12822 ft 320 kts 86°
2026-04-25 09:28 53.05405 -1.67473 12491 ft 321 kts 86°
2026-04-25 09:28 53.05482 -1.63803 12153 ft 322 kts 88°
2026-04-25 09:28 53.05476 -1.60077 11823 ft 323 kts 90°
2026-04-25 09:28 53.05435 -1.56337 11496 ft 323 kts 90°
2026-04-25 09:29 53.05405 -1.52617 11166 ft 319 kts 89°
2026-04-25 09:29 53.05396 -1.48971 10883 ft 311 kts 89°
2026-04-25 09:29 53.05396 -1.45392 10479 ft 308 kts 88°
2026-04-25 09:29 53.05393 -1.41898 10367 ft 296 kts 89°
2026-04-25 09:30 53.05384 -1.38536 10299 ft 284 kts 89°
2026-04-25 09:30 53.05373 -1.35329 10247 ft 270 kts 89°
2026-04-25 09:30 53.05105 -1.32285 10019 ft 265 kts 110°
2026-04-25 09:30 53.04114 -1.29758 9756 ft 262 kts 138°
2026-04-25 09:31 53.02551 -1.28304 9568 ft 258 kts 166°
2026-04-25 09:31 53.00786 -1.28209 9362 ft 253 kts 194°
2026-04-25 09:31 52.99218 -1.29423 9155 ft 248 kts 220°
2026-04-25 09:31 52.98158 -1.31594 8930 ft 245 kts 245°
2026-04-25 09:32 52.97764 -1.34310 8705 ft 242 kts 270°
2026-04-25 09:32 52.98098 -1.37021 8490 ft 241 kts 291°
2026-04-25 09:32 52.98721 -1.39600 8269 ft 241 kts 292°
2026-04-25 09:32 52.99345 -1.42168 8253 ft 239 kts 286°
2026-04-25 09:33 52.99450 -1.44880 8133 ft 238 kts 258°
2026-04-25 09:33 52.98757 -1.47373 7904 ft 240 kts 237°
2026-04-25 09:33 52.97794 -1.49617 7581 ft 238 kts 233°
2026-04-25 09:33 52.96797 -1.51820 7172 ft 239 kts 233°
2026-04-25 09:34 52.95801 -1.54024 6775 ft 238 kts 233°
2026-04-25 09:34 52.94817 -1.56232 6351 ft 237 kts 233°
2026-04-25 09:34 52.93840 -1.58434 5942 ft 236 kts 233°
2026-04-25 09:34 52.92870 -1.60622 5535 ft 235 kts 233°
2026-04-25 09:35 52.91906 -1.62799 5141 ft 233 kts 233°
2026-04-25 09:35 52.90949 -1.64956 4725 ft 232 kts 233°
2026-04-25 09:35 52.89894 -1.66956 4326 ft 230 kts 214°
2026-04-25 09:35 52.88414 -1.67829 3956 ft 227 kts 186°
2026-04-25 09:36 52.86842 -1.67922 3672 ft 220 kts 179°
2026-04-25 09:36 52.85364 -1.67891 3519 ft 205 kts 178°
2026-04-25 09:36 52.83992 -1.67788 3401 ft 191 kts 167°
2026-04-25 09:36 52.82927 -1.66698 3278 ft 178 kts 127°
2026-04-25 09:37 52.82484 -1.64832 3023 ft 176 kts 94°
2026-04-25 09:37 52.82502 -1.62779 3020 ft 183 kts 87°
2026-04-25 09:37 52.82549 -1.60706 3014 ft 177 kts 87°
2026-04-25 09:37 52.82593 -1.58664 3000 ft 174 kts 87°
2026-04-25 09:38 52.82634 -1.56681 2939 ft 176 kts 87°
2026-04-25 09:38 52.82676 -1.54686 2718 ft 169 kts 87°
2026-04-25 09:38 52.82714 -1.52771 2495 ft 162 kts 87°
2026-04-25 09:38 52.82751 -1.50939 2263 ft 157 kts 86°
2026-04-25 09:39 52.82787 -1.49161 2073 ft 153 kts 86°
2026-04-25 09:39 52.82822 -1.47409 1854 ft 152 kts 86°
2026-04-25 09:39 52.82857 -1.45675 1646 ft 150 kts 86°
2026-04-25 09:40 52.82925 -1.42205 1216 ft 149 kts 87°
2026-04-25 09:40 52.82958 -1.40485 1020 ft 152 kts 88°
2026-04-25 09:40 52.82994 -1.38703 1506 ft 162 kts 86°
2026-04-25 09:40 52.83051 -1.36691 2146 ft 185 kts 85°
2026-04-25 09:41 52.83123 -1.34407 2755 ft 215 kts 85°
2026-04-25 09:41 52.83216 -1.31856 3024 ft 221 kts 85°
2026-04-25 09:41 52.83336 -1.29466 3160 ft 204 kts 83°
2026-04-25 09:41 52.83492 -1.27105 3172 ft 202 kts 83°
2026-04-25 09:42 52.83630 -1.24824 3060 ft 196 kts 81°
2026-04-25 09:42 52.84220 -1.22889 3035 ft 190 kts 41°
2026-04-25 09:42 52.85384 -1.21902 3001 ft 188 kts 16°
2026-04-25 09:42 52.86649 -1.21376 3006 ft 187 kts 11°
2026-04-25 09:43 52.87928 -1.20926 2995 ft 187 kts 11°
2026-04-25 09:43 52.89201 -1.20492 3011 ft 188 kts 10°
2026-04-25 09:43 52.90471 -1.20065 2999 ft 184 kts 10°
2026-04-25 09:43 52.91720 -1.19644 2999 ft 183 kts 11°
2026-04-25 09:44 52.92972 -1.19222 3013 ft 182 kts 10°
2026-04-25 09:44 52.94216 -1.18801 3022 ft 183 kts 10°
2026-04-25 09:44 52.95446 -1.18386 3007 ft 182 kts 11°
2026-04-25 09:44 52.96705 -1.17963 3001 ft 181 kts 10°
2026-04-25 09:45 52.97897 -1.17315 2995 ft 183 kts 34°
2026-04-25 09:45 52.98632 -1.15669 2960 ft 183 kts 73°
2026-04-25 09:45 52.98789 -1.13576 2973 ft 184 kts 87°
2026-04-25 09:45 52.98791 -1.11462 2978 ft 183 kts 90°
2026-04-25 09:46 52.98764 -1.09335 2996 ft 183 kts 90°
2026-04-25 09:46 52.98731 -1.07215 3001 ft 185 kts 90°
2026-04-25 09:46 52.98698 -1.05098 3005 ft 183 kts 90°
2026-04-25 09:46 52.98347 -1.03092 2972 ft 183 kts 126°
2026-04-25 09:47 52.97332 -1.01886 2902 ft 180 kts 160°
2026-04-25 09:47 52.96114 -1.01487 2709 ft 175 kts 173°
2026-04-25 09:47 52.94884 -1.01302 2651 ft 179 kts 175°
2026-04-25 09:47 52.93648 -1.01153 2578 ft 177 kts 175°
2026-04-25 09:48 52.92416 -1.01004 2497 ft 179 kts 175°
2026-04-25 09:48 52.91190 -1.01206 2422 ft 177 kts 197°
2026-04-25 09:48 52.90046 -1.01926 2342 ft 176 kts 203°
2026-04-25 09:48 52.88918 -1.02750 2278 ft 176 kts 204°
2026-04-25 09:49 52.87801 -1.03588 2236 ft 176 kts 205°
2026-04-25 09:49 52.86683 -1.04430 2180 ft 176 kts 205°
2026-04-25 09:49 52.85570 -1.05264 2139 ft 176 kts 206°
2026-04-25 09:49 52.84550 -1.06339 2076 ft 175 kts 217°
2026-04-25 09:50 52.83641 -1.07622 1909 ft 168 kts 230°
2026-04-25 09:50 52.83141 -1.09285 1955 ft 159 kts 259°
2026-04-25 09:50 52.83040 -1.11116 1967 ft 161 kts 268°
2026-04-25 09:50 52.83055 -1.12991 2039 ft 165 kts 274°
2026-04-25 09:51 52.83112 -1.14276 2106 ft 166 kts 274°
2026-04-25 09:51 52.83187 -1.16131 2136 ft 157 kts 276°
2026-04-25 09:51 52.83324 -1.17888 2068 ft 151 kts 277°
2026-04-25 09:51 52.83378 -1.19567 1914 ft 144 kts 269°
2026-04-25 09:52 52.83348 -1.21211 1689 ft 143 kts 266°
2026-04-25 09:52 52.83279 -1.22840 1441 ft 145 kts 267°
2026-04-25 09:52 52.83254 -1.24498 1225 ft 145 kts 268°
2026-04-25 09:52 52.83218 -1.26162 955 ft 145 kts 266°
2026-04-25 09:53 52.83180 -1.27816 743 ft 142 kts 267°
2026-04-25 09:53 52.83159 -1.29431 543 ft 139 kts 267°
2026-04-25 09:53 52.83131 -1.31029 358 ft 139 kts 266°
2026-04-25 09:53 52.83095 -1.32567 303 ft 124 kts 267°
2026-04-25 09:54 52.83082 -1.33671 309 ft 61 kts 268°
2026-04-25 09:54 52.83075 -1.34124 305 ft 36 kts 268°
2026-04-25 09:54 52.83070 -1.34411 300 ft 19 kts 269°
2026-04-25 09:54 52.83068 -1.34505 300 ft 4 kts 269°
2026-04-25 09:55 52.83067 -1.34553 301 ft 5 kts 264°
2026-04-25 09:55 52.83056 -1.34608 304 ft 6 kts 243°
2026-04-25 09:55 52.83024 -1.34655 302 ft 7 kts 204°
2026-04-25 09:55 52.82971 -1.34665 303 ft 9 kts 181°
2026-04-25 09:56 52.82922 -1.34650 303 ft 6 kts 145°
2026-04-25 09:56 52.82906 -1.34589 304 ft 6 kts 99°
2026-04-25 09:56 52.82905 -1.34517 304 ft 6 kts 90°
2026-04-25 09:56 52.82906 -1.34442 307 ft 8 kts 89°
2026-04-25 09:57 52.82907 -1.34298 303 ft 17 kts 90°
2026-04-25 09:57 52.82908 -1.34085 302 ft 19 kts 88°
2026-04-25 09:57 52.82912 -1.33886 304 ft 16 kts 89°
2026-04-25 09:57 52.82914 -1.33713 303 ft 7 kts 90°
2026-04-25 09:58 52.82896 -1.33630 302 ft 9 kts 142°
2026-04-25 09:58 52.82835 -1.33611 300 ft 5 kts 176°
2026-04-25 09:58 52.82811 -1.33579 301 ft 4 kts 109°
2026-04-25 09:58 52.82808 -1.33528 300 ft 5 kts 91°
2026-04-25 09:59 52.82808 -1.33494 303 ft 0 kts 91°